Hlavní strana
METAR-TAF:

METAR-TAF

Letiště :

Fairfield Municipal Airport

Fairfield, Illinois, Spojené státy americké

zeměpisná šířka: 38-22-43N, zeměpisná délka: 088-24-46W, výška: 133 m

Aktuální stav počasí

Zpráva byla vytvořena před 18 minutami, v 10:35 UTC
Západní vítr 5 kt
Teplota -1°C
Vlhkost vzduchu 80%
Tlak 1021 hPa
Viditelnost: 16.1 km
Polojasno ve výšce 2000 ft
Zataženo ve výšce 4200 ft

METAR: KFWC 181035Z AUTO 27005KT 10SM SCT020 OVC042 M01/M04 A3016 RMK AO1 T10081044

Čas: 04:53 (10:53 UTC)


TAF: chybějící

Stav a předpovědi počasí z více než 4 000 letišť (zprávy METAR a TAF).

Červené a žluté tečky na mapě představují dostupné meteorologické stanice.

Když kurzor umístíte na tečku, zobrazí se název stanice.

Pak kliknutím zobrazíte stav a předpověď počasí.

Chcete-li změnit mapu, kliknutím na zelené tlačítko se znaménkem +mapu přiblížíte, kliknutím na zelené tlačítko se znaménkem – mapu oddálíte a kliknutím na zelené šipky přejdete na sousední mapy.


METAR-TAF: